Tracking 30922 objects as of 2-Jul-2025
HD Live streaming from Space Station
objects crossing your sky now

STARLINK-4383

Track STARLINK-4383 now!
10-day predictions
STARLINK-4383 is classified as:


NORAD ID: 53473
Int'l Code: 2022-099J
Perigee: 567.1 km
Apogee: 573.2 km
Inclination: 97.7 °
Period: 95.9 minutes
Semi major axis: 6941 km
RCS: Unknown
Launch date: August 12, 2022
Source: United States (US)
Launch site: AIR FORCE WESTERN TEST RANGE (AFWTR)
Your satellite tracking list
Your tracking list is empty




NASA's NSSDC Master Catalog

Two Line Element Set (TLE):
1 53473U 22099J   25182.89999314  .00000601  00000-0  51406-4 0  9991
2 53473  97.6564 304.2952 0004394 118.0432 242.1237 15.01258006158356
Source of the keplerian elements: AFSPC